Regional Weather Roundup
Issued by NWS Newport/Morehead, NC

Current Version | Previous Version | Graphics & Text | Print | Product List | Glossary On
Versions: 1 2 3 4 5 6 7 8 9 10 11 12 13 14 15 16 17 18 19 20 21 22 23 24 25 26 27 28 29 30 31 32 33 34 35 36 37 38 39 40 41 42 43 44 45 46 47 48 49 50
000 ASUS42 KMHX 282013 RWRMHX WEATHER ROUNDUP FOR EASTERN NORTH CAROLINA NATIONAL WEATHER SERVICE NEWPORT/MOREHEAD CITY NC 400 PM EDT FRI AUG 28 2015 NOTE: "FAIR" INDICATES FEW OR NO CLOUDS BELOW 12,000 FEET WITH NO SIGNIFICANT WEATHER AND/OR OBSTRUCTIONS TO VISIBILITY NCZ015>017-031-032-045>047-102-103-282100- NORTH COAST CITY SKY/WX TMP DP RH WIND PRES REMARKS EDENTON PTSUNNY 82 60 46 NE10 30.15F ELIZABETH CITY MOSUNNY 81 61 50 NE10 30.15F KITTY HAWK PTCLDY 82 62 50 N8 30.14S MANTEO MOSUNNY 79 63 58 NE14G20 30.15F $$ NCZ045>047-081-094-103-104-282100- CENTRAL COAST CITY SKY/WX TMP DP RH WIND PRES REMARKS FRISCO MOSUNNY 80 66 62 NE12G21 30.13S SWANQUARTER NOT AVBL $$ NCZ095-097-098-100-101-282100- SOUTHERN COAST CITY SKY/WX TMP DP RH WIND PRES REMARKS BEAUFORT SUNNY 82 66 58 NE16G23 30.12F CEDAR ISLAND NOT AVBL JACKSONVILLE PTSUNNY 83 65 54 N12 30.12F PINEY ISLAND PTCLDY N/A N/A N/A NE16 30.13S WILMINGTON MOSUNNY 83 65 54 NE8 30.12F $$ NCZ011>013-027>030-043-044-078>080-089-090>093-098-282100- COASTAL PLAIN CITY SKY/WX TMP DP RH WIND PRES REMARKS AHOSKIE SUNNY 82 58 42 N8 30.14F CLINTON PTSUNNY 86 63 45 NE5 30.14F ELIZABETHTOWN MOSUNNY 82 62 50 CALM 30.13F GOLDSBORO PTSUNNY 84 61 46 NE10 30.12F GREENVILLE MOSUNNY 82 61 47 E6 30.15F HAVELOCK MOSUNNY 84 67 56 E14G22 30.13F KENANSVILLE N/A 83 58 42 E7 30.14F KINSTON MOSUNNY 82 77 83 NE5 30.14F NEW BERN PTSUNNY 83 61 47 NE15 30.14F RICHLANDS PTSUNNY 82 63 51 N10G17 30.13F ROCKY MOUNT MOSUNNY 87 55 33 N8 30.14F WASHINGTON MOSUNNY 82 60 46 E9 30.14F WHITEVILLE MOSUNNY 83 62 49 NE6 30.12F $$ AMZ130-135-150-152-154-156-158-170-250-252-270-ANZ085-086-088-633-658-670-282100- MARINE OBSERVATIONS STATION/POSITION TIME TEMP WIND PRES WAVE SWELL AIR SEA DIR/SP/G HT/PER HT/PER (UTC) (F) (DEG/KT/KT) (MB) (FT/S) (FT/S) CHESAPEAKE LIGHT 2000 75 60/ 10/ 12 1021.9 64 E VA BEACH 1950 77 80 20/ 14/ 17 1020.2 4/10 3/10 DUCK NOT AVBL 2 E DUCK 1911 79 N/A 4/11 2/11 OREGON INLET NOT AVBL 13E OREGON INLT 2000 77 N/A 5/ 7 2/11 HATTERAS CG NOT AVBL DIAMOND BUOY 1950 79 83 30/ 17/ 21 1019.5 5/ 8 3/ 8 CAPE LOOKOUT 2000 79 40/ 18/ 20 1019.6 BEAUFORT LAB NOT AVBL 30 SE NEW RVR IN 1908 80 82 50/ 17/ 21 1020.2 30 SE NEW RVR IN 1925 82 N/A 5/ 6 2/11 27 SE WRIGHTSVLE 1900 77 82 50/ 14/ 17 N/A 5 SE WRIGHTSVLE 1908 81 82 60/ 14/ 17 1020.0 225 S CAPE HAT 1950 82 84 220/ 8/ 10 1017.6 3/12 3/12 41 SE CHARLESTON 1950 78 85 20/ 16/ 19 1018.1 3/ 5 2/ 9 $$

USA.gov is the U.S. government's official web portal to all federal, state and local government web resources and services.